| time (UTC) | temp F | wind direction | speed MPH | gust MPH | rain 1hr in | rain 24hr in | rain mn in | humidity % | barometer mb |
| 20260507050817 | 43 | 293 | 1.0 | 3.0 | 0.00 | 0.15 | 0.02 | 98 | 1011.7 |
| 20260507045817 | 43 | 293 | 2.0 | 4.0 | 0.00 | 0.15 | 0.02 | 98 | 1011.5 |
| 20260507044817 | 43 | 248 | 1.0 | 2.0 | 0.00 | 0.16 | 0.02 | 98 | 1011.4 |
| 20260507043817 | 43 | 293 | 1.0 | 2.0 | 0.00 | 0.17 | 0.02 | 98 | 1011.4 |
| 20260507042817 | 43 | 338 | 2.0 | 3.0 | 0.00 | 0.17 | 0.02 | 98 | 1011.3 |
| 20260507041820 | 43 | 293 | 1.0 | 1.0 | 0.00 | 0.17 | 0.02 | 98 | 1011.3 |
| 20260507040817 | 43 | 315 | 1.0 | 2.0 | 0.00 | 0.17 | 0.02 | 98 | 1011.3 |
| 20260507035817 | 43 | 0.0 | 2.0 | 0.00 | 0.17 | 0.02 | 98 | 1011.3 | |
| 20260507034817 | 43 | 315 | 1.0 | 3.0 | 0.00 | 0.17 | 0.02 | 98 | 1011.2 |
| 20260507033820 | 43 | 293 | 4.0 | 7.0 | 0.00 | 0.17 | 0.02 | 98 | 1011.1 |
| 20260507032820 | 43 | 293 | 4.0 | 8.0 | 0.00 | 0.17 | 0.02 | 98 | 1011.0 |
| 20260507031827 | 43 | 293 | 2.0 | 3.0 | 0.00 | 0.17 | 0.02 | 98 | 1010.9 |
| 20260507030820 | 43 | 315 | 4.0 | 9.0 | 0.00 | 0.17 | 0.02 | 98 | 1010.9 |
| 20260507025817 | 43 | 315 | 2.0 | 3.0 | 0.00 | 0.18 | 0.02 | 98 | 1010.9 |
| 20260507024817 | 43 | 315 | 1.0 | 2.0 | 0.00 | 0.18 | 0.02 | 98 | 1011.0 |
| 20260507023817 | 43 | 338 | 2.0 | 4.0 | 0.00 | 0.19 | 0.02 | 98 | 1011.1 |
| 20260507022817 | 43 | 270 | 2.0 | 4.0 | 0.00 | 0.20 | 0.02 | 98 | 1011.0 |
| 20260507021817 | 43 | 315 | 2.0 | 3.0 | 0.00 | 0.21 | 0.02 | 98 | 1011.0 |
| 20260507020820 | 43 | 293 | 3.0 | 9.0 | 0.01 | 0.22 | 0.02 | 98 | 1010.8 |
| 20260507015857 | 43 | 315 | 4.0 | 10.0 | 0.01 | 0.24 | 0.02 | 98 | 1010.7 |
| 20260507014820 | 43 | 338 | 3.0 | 5.0 | 0.01 | 0.24 | 0.02 | 98 | 1010.7 |
| 20260507013817 | 43 | 293 | 5.0 | 8.0 | 0.01 | 0.25 | 0.02 | 98 | 1010.5 |
| 20260507012840 | 43 | 315 | 3.0 | 5.0 | 0.01 | 0.25 | 0.02 | 98 | 1010.6 |
| 20260507011817 | 43 | 270 | 4.0 | 10.0 | 0.01 | 0.26 | 0.02 | 98 | 1010.4 |
| 20260507010840 | 43 | 293 | 2.0 | 4.0 | 0.00 | 0.26 | 0.02 | 98 | 1010.3 |
| 20260507005817 | 43 | 293 | 2.0 | 4.0 | 0.00 | 0.27 | 0.02 | 98 | 1010.2 |
| 20260507004817 | 43 | 338 | 3.0 | 6.0 | 0.00 | 0.28 | 0.02 | 98 | 1010.1 |
| 20260507003817 | 43 | 315 | 4.0 | 8.0 | 0.00 | 0.28 | 0.02 | 98 | 1010.0 |
| 20260507002817 | 44 | 315 | 2.0 | 4.0 | 0.00 | 0.28 | 0.02 | 98 | 1010.0 |
| 20260507001817 | 44 | 315 | 1.0 | 4.0 | 0.00 | 0.28 | 0.02 | 98 | 1010.0 |
| 20260507000817 | 44 | 293 | 2.0 | 3.0 | 0.00 | 0.28 | 0.02 | 98 | 1010.0 |
| 20260506235825 | 44 | 315 | 3.0 | 5.0 | 0.00 | 0.28 | 0.02 | 98 | 1010.1 |
| 20260506234819 | 44 | 0.0 | 2.0 | 0.00 | 0.28 | 0.02 | 98 | 1010.1 | |
| 20260506233817 | 44 | 338 | 1.0 | 2.0 | 0.01 | 0.28 | 0.02 | 98 | 1010.0 |
| 20260506232817 | 44 | 0 | 4.0 | 8.0 | 0.01 | 0.28 | 0.02 | 98 | 1010.0 |
| 20260506231837 | 44 | 338 | 1.0 | 2.0 | 0.01 | 0.28 | 0.02 | 98 | 1010.0 |
| 20260506230817 | 44 | 338 | 3.0 | 6.0 | 0.02 | 0.28 | 0.02 | 98 | 1009.9 |
| 20260506225817 | 44 | 338 | 5.0 | 8.0 | 0.02 | 0.28 | 0.02 | 98 | 1009.9 |
| 20260506224817 | 44 | 338 | 2.0 | 5.0 | 0.02 | 0.28 | 0.02 | 98 | 1009.7 |
| 20260506223817 | 44 | 338 | 3.0 | 9.0 | 0.01 | 0.28 | 0.01 | 98 | 1009.7 |
| 20260506222817 | 44 | 23 | 4.0 | 9.0 | 0.01 | 0.28 | 0.01 | 98 | 1009.7 |
| 20260506221820 | 44 | 315 | 3.0 | 4.0 | 0.01 | 0.28 | 0.01 | 98 | 1009.6 |
| 20260506220816 | 44 | 338 | 2.0 | 4.0 | 0.00 | 0.28 | 0.00 | 98 | 1009.5 |
| 20260506215819 | 45 | 23 | 2.0 | 4.0 | 0.00 | 0.28 | 0.28 | 98 | 1009.3 |
| 20260506214816 | 45 | 180 | 1.0 | 3.0 | 0.00 | 0.28 | 0.28 | 98 | 1009.2 |
| 20260506213816 | 45 | 0 | 3.0 | 5.0 | 0.00 | 0.28 | 0.28 | 98 | 1009.2 |
| 20260506212819 | 45 | 248 | 1.0 | 3.0 | 0.00 | 0.28 | 0.28 | 98 | 1009.1 |
| 20260506211839 | 44 | 338 | 1.0 | 2.0 | 0.00 | 0.28 | 0.28 | 98 | 1009.1 |
| 20260506210816 | 44 | 270 | 1.0 | 2.0 | 0.00 | 0.28 | 0.28 | 98 | 1009.1 |
| 20260506205840 | 44 | 293 | 2.0 | 4.0 | 0.00 | 0.28 | 0.28 | 98 | 1009.0 |
| 20260506204817 | 44 | 293 | 3.0 | 5.0 | 0.01 | 0.28 | 0.28 | 98 | 1008.9 |
| 20260506203816 | 44 | 293 | 1.0 | 3.0 | 0.01 | 0.28 | 0.28 | 98 | 1009.0 |
| 20260506202842 | 44 | 338 | 3.0 | 8.0 | 0.01 | 0.28 | 0.28 | 98 | 1008.8 |
| 20260506201816 | 44 | 315 | 4.0 | 8.0 | 0.01 | 0.29 | 0.28 | 98 | 1008.8 |
| 20260506200819 | 44 | 315 | 6.0 | 9.0 | 0.01 | 0.29 | 0.28 | 98 | 1008.7 |
| 20260506195819 | 45 | 315 | 2.0 | 4.0 | 0.02 | 0.29 | 0.28 | 98 | 1008.6 |
| 20260506194839 | 45 | 293 | 2.0 | 4.0 | 0.01 | 0.29 | 0.27 | 98 | 1008.6 |
| 20260506193816 | 45 | 293 | 4.0 | 9.0 | 0.01 | 0.29 | 0.27 | 98 | 1008.4 |
| 20260506192816 | 45 | 293 | 3.0 | 5.0 | 0.01 | 0.29 | 0.27 | 98 | 1008.3 |
| 20260506191816 | 45 | 248 | 2.0 | 4.0 | 0.01 | 0.30 | 0.27 | 98 | 1008.2 |
| 20260506190819 | 45 | 0 | 1.0 | 2.0 | 0.01 | 0.30 | 0.27 | 98 | 1008.2 |
| 20260506185816 | 45 | 338 | 2.0 | 4.0 | 0.00 | 0.30 | 0.26 | 97 | 1008.2 |
| 20260506184819 | 45 | 293 | 2.0 | 4.0 | 0.00 | 0.31 | 0.26 | 98 | 1008.1 |
| 20260506183816 | 44 | 270 | 3.0 | 7.0 | 0.00 | 0.31 | 0.26 | 97 | 1007.9 |
| 20260506182816 | 45 | 270 | 1.0 | 2.0 | 0.00 | 0.31 | 0.26 | 97 | 1007.8 |
| 20260506181836 | 44 | 315 | 5.0 | 10.0 | 0.00 | 0.32 | 0.26 | 97 | 1007.7 |
| 20260506180839 | 45 | 338 | 1.0 | 2.0 | 0.00 | 0.33 | 0.26 | 97 | 1007.7 |
| 20260506175816 | 44 | 315 | 2.0 | 3.0 | 0.00 | 0.34 | 0.26 | 97 | 1007.6 |
| 20260506174816 | 45 | 315 | 2.0 | 3.0 | 0.00 | 0.35 | 0.26 | 97 | 1007.6 |
| 20260506173816 | 45 | 315 | 4.0 | 6.0 | 0.00 | 0.35 | 0.26 | 97 | 1007.3 |
| 20260506172816 | 45 | 293 | 2.0 | 7.0 | 0.00 | 0.36 | 0.26 | 97 | 1007.3 |
| 20260506171816 | 45 | 338 | 1.0 | 1.0 | 0.00 | 0.38 | 0.26 | 97 | 1007.3 |
| 20260506170816 | 45 | 315 | 3.0 | 7.0 | 0.00 | 0.39 | 0.26 | 97 | 1007.4 |
| 20260506165816 | 45 | 315 | 4.0 | 8.0 | 0.00 | 0.42 | 0.26 | 97 | 1007.3 |
| 20260506164839 | 45 | 315 | 3.0 | 6.0 | 0.00 | 0.43 | 0.26 | 97 | 1007.2 |
| 20260506163816 | 45 | 315 | 4.0 | 10.0 | 0.00 | 0.44 | 0.26 | 97 | 1007.1 |
| 20260506162816 | 45 | 270 | 2.0 | 3.0 | 0.00 | 0.46 | 0.26 | 97 | 1007.0 |
| 20260506161904 | 45 | 293 | 5.0 | 9.0 | 0.00 | 0.46 | 0.26 | 97 | 1006.9 |
| 20260506160816 | 45 | 315 | 4.0 | 7.0 | 0.00 | 0.48 | 0.26 | 97 | 1006.9 |
| 20260506155816 | 46 | 248 | 3.0 | 6.0 | 0.00 | 0.50 | 0.26 | 97 | 1006.9 |
| 20260506154839 | 46 | 315 | 2.0 | 4.0 | 0.00 | 0.51 | 0.26 | 97 | 1006.9 |
| 20260506153816 | 46 | 293 | 1.0 | 3.0 | 0.00 | 0.53 | 0.26 | 97 | 1006.9 |
| 20260506152816 | 46 | 293 | 2.0 | 6.0 | 0.01 | 0.55 | 0.26 | 97 | 1006.9 |
| 20260506151816 | 46 | 315 | 4.0 | 9.0 | 0.01 | 0.57 | 0.26 | 97 | 1006.8 |
| 20260506150816 | 46 | 293 | 4.0 | 7.0 | 0.01 | 0.59 | 0.26 | 97 | 1006.7 |
| 20260506145816 | 46 | 315 | 3.0 | 4.0 | 0.02 | 0.61 | 0.26 | 97 | 1006.6 |
| 20260506144816 | 47 | 293 | 4.0 | 10.0 | 0.02 | 0.67 | 0.26 | 97 | 1006.6 |
| 20260506143839 | 47 | 293 | 4.0 | 9.0 | 0.02 | 0.71 | 0.26 | 97 | 1006.5 |
| 20260506142816 | 48 | 338 | 2.0 | 4.0 | 0.01 | 0.70 | 0.25 | 97 | 1006.5 |
| 20260506141816 | 48 | 338 | 2.0 | 3.0 | 0.01 | 0.70 | 0.25 | 97 | 1006.3 |
| 20260506140819 | 48 | 338 | 3.0 | 5.0 | 0.01 | 0.70 | 0.25 | 97 | 1006.4 |
| 20260506135819 | 48 | 293 | 4.0 | 9.0 | 0.00 | 0.69 | 0.24 | 97 | 1006.2 |
| 20260506134816 | 48 | 315 | 1.0 | 2.0 | 0.00 | 0.69 | 0.24 | 97 | 1006.1 |
| 20260506133816 | 48 | 293 | 2.0 | 3.0 | 0.00 | 0.69 | 0.24 | 97 | 1006.3 |
| 20260506132859 | 48 | 315 | 5.0 | 8.0 | 0.00 | 0.69 | 0.24 | 97 | 1006.3 |
| 20260506132616 | 48 | 0.0 | 1.0 | 0.00 | 0.69 | 0.24 | 97 | 1006.2 | |
| 20260506131616 | 48 | 315 | 2.0 | 5.0 | 0.00 | 0.69 | 0.24 | 97 | 1006.1 |
| 20260506130636 | 48 | 338 | 4.0 | 8.0 | 0.00 | 0.69 | 0.24 | 97 | 1006.1 |
| 20260506125615 | 48 | 293 | 2.0 | 4.0 | 0.00 | 0.69 | 0.24 | 97 | 1006.0 |
| 20260506124616 | 48 | 248 | 3.0 | 6.0 | 0.00 | 0.69 | 0.24 | 97 | 1006.0 |
| 20260506123615 | 48 | 248 | 2.0 | 8.0 | 0.00 | 0.69 | 0.24 | 97 | 1006.0 |
| 20260506122624 | 48 | 0.0 | 0.0 | 0.00 | 0.69 | 0.24 | 97 | 1006.0 | |
| 20260506121616 | 48 | 293 | 5.0 | 8.0 | 0.01 | 0.69 | 0.24 | 97 | 1005.8 |
| 20260506120616 | 49 | 270 | 3.0 | 6.0 | 0.01 | 0.69 | 0.24 | 97 | 1005.7 |
| 20260506115618 | 48 | 338 | 3.0 | 6.0 | 0.01 | 0.69 | 0.24 | 97 | 1005.6 |
| 20260506114615 | 49 | 315 | 5.0 | 8.0 | 0.01 | 0.69 | 0.24 | 97 | 1005.6 |
| 20260506113615 | 48 | 315 | 3.0 | 7.0 | 0.01 | 0.69 | 0.24 | 97 | 1005.6 |
| 20260506112616 | 49 | 293 | 1.0 | 3.0 | 0.01 | 0.69 | 0.24 | 97 | 1005.5 |
| 20260506111619 | 48 | 315 | 4.0 | 8.0 | 0.00 | 0.69 | 0.24 | 97 | 1005.3 |
| 20260506110616 | 48 | 315 | 5.0 | 9.0 | 0.00 | 0.69 | 0.24 | 97 | 1005.5 |
| 20260506105619 | 48 | 293 | 3.0 | 12.0 | 0.00 | 0.69 | 0.24 | 97 | 1005.4 |
| 20260506104618 | 49 | 338 | 4.0 | 6.0 | 0.00 | 0.69 | 0.24 | 97 | 1005.3 |
| 20260506103615 | 49 | 293 | 4.0 | 9.0 | 0.00 | 0.69 | 0.24 | 97 | 1005.1 |
| 20260506102616 | 49 | 315 | 3.0 | 5.0 | 0.00 | 0.69 | 0.24 | 98 | 1005.0 |
| 20260506102118 | 49 | 315 | 4.0 | 8.0 | 0.01 | 0.69 | 0.24 | 97 | 1004.9 |
| 20260506101115 | 49 | 315 | 3.0 | 6.0 | 0.01 | 0.69 | 0.24 | 98 | 1004.9 |
| 20260506100115 | 49 | 248 | 2.0 | 5.0 | 0.01 | 0.69 | 0.24 | 98 | 1004.8 |
| 20260506095118 | 49 | 293 | 2.0 | 3.0 | 0.01 | 0.69 | 0.24 | 98 | 1004.7 |
| 20260506094116 | 49 | 180 | 1.0 | 3.0 | 0.01 | 0.69 | 0.24 | 98 | 1004.8 |
| 20260506093115 | 49 | 315 | 2.0 | 3.0 | 0.01 | 0.69 | 0.24 | 98 | 1004.7 |
| 20260506092115 | 49 | 293 | 4.0 | 8.0 | 0.00 | 0.68 | 0.23 | 98 | 1004.7 |
| 20260506091135 | 49 | 270 | 2.0 | 4.0 | 0.00 | 0.68 | 0.23 | 98 | 1004.7 |
| 20260506090118 | 49 | 248 | 2.0 | 3.0 | 0.01 | 0.68 | 0.23 | 98 | 1004.6 |
| 20260506085118 | 49 | 293 | 2.0 | 6.0 | 0.01 | 0.68 | 0.23 | 98 | 1004.5 |
| 20260506084122 | 49 | 248 | 2.0 | 5.0 | 0.02 | 0.68 | 0.23 | 98 | 1004.4 |
| 20260506083120 | 49 | 270 | 2.0 | 3.0 | 0.02 | 0.68 | 0.23 | 98 | 1004.3 |
| 20260506082117 | 49 | 270 | 2.0 | 3.0 | 0.02 | 0.68 | 0.23 | 98 | 1004.3 |
| 20260506081117 | 48 | 293 | 2.0 | 4.0 | 0.02 | 0.68 | 0.23 | 98 | 1004.3 |
| 20260506080117 | 48 | 270 | 2.0 | 6.0 | 0.01 | 0.67 | 0.22 | 98 | 1004.2 |
| 20260506073120 | 48 | 270 | 1.0 | 2.0 | 0.00 | 0.66 | 0.21 | 98 | 1004.2 |
| 20260506072117 | 48 | 270 | 1.0 | 3.0 | 0.01 | 0.66 | 0.21 | 98 | 1004.2 |
| 20260506071140 | 48 | 293 | 2.0 | 3.0 | 0.01 | 0.66 | 0.21 | 98 | 1004.2 |
| 20260506070117 | 48 | 293 | 2.0 | 3.0 | 0.01 | 0.66 | 0.21 | 98 | 1004.0 |
| 20260506062106 | 48 | 270 | 1.0 | 2.0 | 0.02 | 0.65 | 0.20 | 98 | 1003.8 |
| 20260506061517 | 48 | 338 | 1.0 | 2.0 | 0.04 | 0.65 | 0.20 | 98 | 1003.8 |
| 20260506060524 | 48 | 293 | 1.0 | 1.0 | 0.06 | 0.65 | 0.20 | 98 | 1003.7 |